Regional Weather Roundup
Issued by NWS

Home | Current Version | Previous Version | Graphics & Text | Print | Product List | Glossary On
Versions: 1 2 3 4 5 6 7 8 9 10 11 12 13 14 15 16 17 18 19 20 21 22 23 24 25 26 27 28
000
ASUS45 KBOI 231110
RWRID

IDAHO REGIONAL WEATHER ROUNDUP
NATIONAL WEATHER SERVICE BOISE ID
500 AM MDT TUE MAY 23 2017

NOTE: "FAIR" INDICATES FEW OR NO CLOUDS BELOW 12000 FEET
WITH NO SIGNIFICANT WEATHER AND/OR OBSTRUCTIONS TO VISIBILITY

IDZ012-014-231200-
SOUTHWEST IDAHO


CITY           SKY/WX    TMP DP  RH WIND       PRES   REMARKS
BOISE          CLEAR     57  41  55 SE8       30.10S
CALDWELL       CLEAR     52  46  80 E3        30.10S
MOUNTAIN HOME  CLEAR     48  41  76 E5        30.12S
$$

IDZ016-017-231200-
SOUTHCENTRAL IDAHO


CITY           SKY/WX    TMP DP  RH WIND       PRES   REMARKS
BURLEY         CLEAR     49  42  77 CALM      30.18R
JEROME         CLEAR     48  39  71 NE8       30.18R
TWIN FALLS     CLEAR     49  38  65 S6        30.18R
$$

IDZ019>023-231200-
SOUTHEAST IDAHO


CITY           SKY/WX    TMP DP  RH WIND       PRES   REMARKS
IDAHO FALLS    CLEAR     41  37  86 N7        30.25S
POCATELLO      CLEAR     42  39  89 NW3       30.22R
REXBURG        CLEAR     42  35  76 E6        30.26S
$$

IDZ006-010-011-018-031-032-231200-
CENTRAL IDAHO MOUNTAINS


CITY           SKY/WX    TMP DP  RH WIND       PRES   REMARKS
MCCALL         CLEAR     41  35  79 CALM      30.20F
HAILEY         CLEAR     45  34  65 NW9       30.27S
STANLEY          N/A     31  28  89 S3        30.33S
SALMON         CLEAR     43  37  81 CALM      30.22R
CHALLIS        CLEAR     45  36  70 CALM      30.25S
$$

IDZ002-004-006-007-026-231200-
NORTHERN IDAHO


CITY           SKY/WX    TMP DP  RH WIND       PRES   REMARKS
LEWISTON       CLEAR     58  47  66 CALM      30.06S
LOWELL           N/A     50  47  89 N5        30.15S
COEUR D`ALENE  CLEAR     54  48  80 SE5       30.08F
MULLAN PASS    CLEAR     57  33  40 CALM      30.23F
$$




USA.gov is the U.S. government's official web portal to all federal, state and local government web resources and services.